Location: Home
(42.5358°N, 72.7383°W)
Time: 19:53:24
(UTC-05:00)

A-11 Canister half - Pass Details

Date: 05 December 2021
Orbit: 1524 x 1684 km, 47.3° (Epoch: 23 January)

Event Time Altitude Azimuth Distance (km) Brightness Sun altitude
Rises 23:13:01 0° 205° (SSW) 4,896 - -69.1°
Reaches altitude 10° 23:16:26 10° 198° (SSW) 3,923 - -69.3°
Maximum altitude 23:25:28 39° 134° (SE) 2,357 - -69.7°
Drops below altitude 10° 23:34:30 10° 71° (ENE) 3,938 - -69.9°
Sets 23:37:55 0° 64° (ENE) 4,917 - -70.0°
